CZ-6A DEB, 54560

Orbit data source: Space-Track

CZ-6A DEB, 54560 is space debris in SSO originally from a launch on Fri, 11 Nov 2022 UTC launched from the Taiyaun Space Center, China (TSC). Debris objects in space refer to the collection of defunct objects orbiting the Earth. Examples of debris include non-operational satellites, rocket bodies, and fragments generated from explosions, collisions, or faulty payload assembly.

Loading next visibility...
Identifier
54560, 2022-151LL
Orbit
SSO
Country
Flag of CNCN / PRC
Related business
Manufacturer
SAST
Mission
Spacecraft
Bus & Motor
Unknown
Mass
Unknown
Launch date (UTC)
2022-11-11 (3 years ago)
Launch vehicle
Unknown
Launch site
Taiyaun Space Center, China (TSC)
Object type
Payload
Rocket body
Debris
Shape & HBR
Unknown shape, 1.5 m
Radar Cross Section
Large (>1 m²)

Expand to show TLE details & history
Last TLE update: 11 hours ago

TLE from 11 hours ago
0 CZ-6A DEB
1 54560U 22151LL  25351.60992279  .00000206  00000-0  14359-3 0  9994
2 54560  98.8382 345.2996 0059912 156.0006 204.3977 14.08184307158891
Epoch: 2025-12-17T14:38Z
TLE epoch observation values (Epoch: 2025-12-17T14:38:17.329Z)
Latitude
0.00006°
Longitude
39.25007°
Altitude
908.061 km
Speed
7.378 km/s
True Right ascension
23h 01m 11s
True Declination
0° 00' 00"
Sunlit
Object was in daylight at epoch
Visualization orbit readout
Latitude
Unknown
Longitude
Unknown
Altitude
Unknown
Speed
Unknown
Apparent Right ascension
Unknown
Apparent Declination
Unknown
Sunlit
N/A
Visualization observer readout
Local Sidereal Time
00:26:44
Azimuth
Unknown
Elevation
Unknown
Doppler factor
Unknown
Orbital elements
Apogee altitude
906.154 km
Perigee altitude
819.39 km
Semi-major axis
7,240.909 km
Eccentricity
0.00599
Inclination
98.8382°
RAAN
345.2996°
Arg. of periapsis
156.0006°
True anomaly
204.11603°
Mean anomaly
204.3977°
Eccentric anomaly
204.25668°
Mean motion
3.52252 °/min
Orbital period
102.2 mins
BSTAR
0.00014359
Loading maneuver chart data...
Computing Atmospheric mass density...
Loading historical data...
Loading historical data...
Loading historical data...
Loading historical data...
Loading historical data...
Loading historical data...
Loading historical data...

Documentation

Showing up to 5 results
|